Regional Weather Roundup
Issued by NWS

Home | Current Version | Previous Version | Text Only | Print | Product List | Glossary On
Versions: 1 2 3 4 5 6 7 8 9 10 11 12 13 14 15 16 17 18 19 20 21 22 23 24 25 26 27
000
ASUS44 KJAN 281520
RWRMS

MISSISSIPPI HOURLY WEATHER ROUNDUP
NATIONAL WEATHER SERVICE JACKSON MS
1000 AM CDT WED SEP 28 2016

NOTE: "FAIR: INDICATES FEW OR NO CLOUDS BELOW 12,000 FEET WITH NO
SIGNIFICANT WEATHER AND/OR OBSTRUCTIONS TO VISIBILITY.

MSZ001>002-007>008-010>013-018>021-025>028-034>036-281600-
NORTHWEST MISSISSIPPI

CITY           SKY/WX    TMP DP  RH WIND       PRES   REMARKS
BATESVILLE     FAIR      71  54  53 SW5       29.98S
CLARKSDALE     SUNNY     77  57  50 W8        29.98S
CLEVELAND      FAIR      73  58  57 SW6       29.99S
GREENWOOD      SUNNY     71  54  54 SW5       30.01R
GREENVILLE     SUNNY     76  55  48 SW7       30.00R
OLIVE BRANCH   SUNNY    N/A N/A N/A SW6       29.95
OXFORD         FAIR      72  50  46 W7        30.01R
TUNICA         SUNNY     75  54  46 SW9       29.98S
WINONA         FAIR      71  51  48 CALM      30.01R
$$

MSZ003>006-009-014>017-022>024-029>033-037>039-281600-
NORTHEAST MISSISSIPPI

CITY           SKY/WX    TMP DP  RH WIND       PRES   REMARKS
COLUMBUS AFB   SUNNY     73  50  44 VRB2      30.00R
CORINTH        FAIR      72  48  43 VRB5      29.97R
GOLDN TRIANGLE SUNNY     75  64  69 W7        30.01R
STARKVILLE     FAIR      73  50  43 CALM      30.02S
TUPELO         SUNNY     73  45  36 SW3       29.99R
$$

MSZ040-058-281600-
CENTRAL MISSISSIPPI

CITY           SKY/WX    TMP DP  RH WIND       PRES   REMARKS
JACKSON INTL   SUNNY     78  50  37 N5        30.02R
JACKSON HAWKNS SUNNY     74  51  44 NW5       30.03R
MADISON        FAIR      73  48  40 CALM      30.03S
MERIDIAN KEY   SUNNY     80  48  32 CALM      30.02R
MERIDIAN NAS   SUNNY     78  46  32 CALM      30.02R
VICKSBURG VKS  SUNNY     73  61  64 CALM      30.03R
$$

MSZ059>079-281600-
SOUTH MISSISSIPPI

CITY           SKY/WX    TMP DP  RH WIND       PRES   REMARKS
BROOKHAVEN     FAIR     N/A N/A N/A CALM      30.05R
HATTIESBURG    SUNNY     77  58  51 CALM      30.03R
LAUREL         FAIR      75  54  47 CALM      30.02R
MCCOMB         SUNNY     77  52  41 CALM      30.04R
NATCHEZ        SUNNY     73  55  53 N5        30.05R
PINE BELT      SUNNY     79  50  36 CALM      30.03S
$$

MSZ080>082-281600-
COASTAL MISSISSIPPI

CITY           SKY/WX    TMP DP  RH WIND       PRES   REMARKS
BAY ST LOUIS   SUNNY     79  54  41 CALM      30.01
BILOXI         SUNNY     80  62  53 VRB5      30.00R
PASCAGOULA     SUNNY     81  64  56 N3        30.00R
GULFPORT       SUNNY     82  59  45 VRB3      30.00R
$$

LAZ007>009-015>016-023>026-281600-
NORTHEAST LOUISIANA

CITY           SKY/WX    TMP DP  RH WIND       PRES   REMARKS
BASTROP        FAIR      75  55  49 W6        30.03S
TALLULAH/VBURG SUNNY     75  56  51 NW3       30.04R
$$




USA.gov is the U.S. government's official web portal to all federal, state and local government web resources and services.